M I D A S
Marine Information and Data Acquisition System
Tripno 1575 of the Zeeleeuw from 2008-09-26 06:23:33 to 2008-09-26 16:00:25
Back to CruiseResearch ActivitiesStationsMapUnderway DataData graphs

EquipmentUnitsComment
TimeDGPSUTC
LatitudeDGPSDM.mWGS84
LongitudeDGPSDM.mWGS84
TemperatureSBE03/SBE38deg celciusITS90
ConductivitySBE21S/mITS90
SalinitySBE21 Practical Salinity Units
ChlorophylAChelsea fluorimeterg/lCalibrated in Aceton
Missing or incorrect values are displayed as -999
Sea surface data collected by the RV Zeeleeuw from 2008-09-26 06:23:33 to 2008-09-26 16:00:25
                                                                                    Next 1000 lines
Time Latitude Longitude Temperature Conductivity Salinity ChlorophylA
2008-09-26 06:23:50 51°13.636 2°55.973 -999 -999 -999 -999
2008-09-26 06:24:00 51°13.638 2°55.958 -999 -999 -999 -999
2008-09-26 06:24:10 51°13.641 2°55.945 -999 -999 -999 -999
2008-09-26 06:24:20 51°13.645 2°55.929 -999 -999 -999 -999
2008-09-26 06:24:30 51°13.65 2°55.91 -999 -999 -999 -999
2008-09-26 06:24:40 51°13.655 2°55.895 -999 -999 -999 -999
2008-09-26 06:24:50 51°13.661 2°55.878 -999 -999 -999 -999
2008-09-26 06:25:00 51°13.669 2°55.859 -999 -999 -999 -999
2008-09-26 06:25:10 51°13.676 2°55.841 -999 -999 -999 -999
2008-09-26 06:25:20 51°13.683 2°55.826 -999 -999 -999 -999
2008-09-26 06:25:30 51°13.693 2°55.808 -999 -999 -999 -999
2008-09-26 06:25:40 51°13.702 2°55.793 -999 -999 -999 -999
2008-09-26 06:25:50 51°13.71 2°55.779 -999 -999 -999 -999
2008-09-26 06:26:00 51°13.72 2°55.763 -999 -999 -999 -999
2008-09-26 06:26:10 51°13.731 2°55.747 -999 -999 -999 -999
2008-09-26 06:26:20 51°13.742 2°55.732 -999 -999 -999 -999
2008-09-26 06:26:30 51°13.753 2°55.719 -999 -999 -999 -999
2008-09-26 06:26:40 51°13.764 2°55.707 -999 -999 -999 -999
2008-09-26 06:26:50 51°13.775 2°55.696 -999 -999 -999 -999
2008-09-26 06:27:00 51°13.787 2°55.686 -999 -999 -999 -999
2008-09-26 06:27:10 51°13.8 2°55.676 -999 -999 -999 -999
2008-09-26 06:27:20 51°13.81 2°55.668 -999 -999 -999 -999
2008-09-26 06:27:30 51°13.823 2°55.658 -999 -999 -999 -999
2008-09-26 06:27:40 51°13.835 2°55.65 -999 -999 -999 -999
2008-09-26 06:27:50 51°13.846 2°55.643 -999 -999 -999 -999
2008-09-26 06:28:00 51°13.859 2°55.636 -999 -999 -999 -999
2008-09-26 06:28:10 51°13.872 2°55.631 -999 -999 -999 -999
2008-09-26 06:28:20 51°13.884 2°55.628 -999 -999 -999 -999
2008-09-26 06:28:30 51°13.896 2°55.626 -999 -999 -999 -999
2008-09-26 06:28:40 51°13.908 2°55.627 -999 -999 -999 -999
2008-09-26 06:28:50 51°13.92 2°55.629 -999 -999 -999 -999
2008-09-26 06:29:00 51°13.929 2°55.632 -999 -999 -999 -999
2008-09-26 06:29:10 51°13.939 2°55.637 -999 -999 -999 -999
2008-09-26 06:29:20 51°13.946 2°55.64 -999 -999 -999 -999
2008-09-26 06:29:30 51°13.951 2°55.643 -999 -999 -999 -999
2008-09-26 06:29:40 51°13.953 2°55.644 -999 -999 -999 -999
2008-09-26 06:29:50 51°13.953 2°55.64 -999 -999 -999 -999
2008-09-26 06:30:00 51°13.951 2°55.632 -999 -999 -999 -999
2008-09-26 06:30:10 51°13.95 2°55.618 -999 -999 -999 -999
2008-09-26 06:30:20 51°13.952 2°55.601 -999 -999 -999 -999
2008-09-26 06:30:30 51°13.957 2°55.583 -999 -999 -999 -999
2008-09-26 06:30:40 51°13.966 2°55.565 -999 -999 -999 -999
2008-09-26 06:30:50 51°13.978 2°55.548 -999 -999 -999 -999
2008-09-26 06:31:00 51°13.993 2°55.53 -999 -999 -999 -999
2008-09-26 06:31:10 51°14.011 2°55.512 -999 -999 -999 -999
2008-09-26 06:31:20 51°14.03 2°55.494 -999 -999 -999 -999
2008-09-26 06:31:30 51°14.051 2°55.476 -999 -999 -999 -999
2008-09-26 06:31:40 51°14.072 2°55.456 -999 -999 -999 -999
2008-09-26 06:31:50 51°14.094 2°55.437 -999 -999 -999 -999
2008-09-26 06:32:00 51°14.117 2°55.417 -999 -999 -999 -999
2008-09-26 06:32:10 51°14.139 2°55.396 -999 -999 -999 -999
2008-09-26 06:32:20 51°14.162 2°55.375 -999 -999 -999 -999
2008-09-26 06:32:30 51°14.183 2°55.352 -999 -999 -999 -999
2008-09-26 06:32:40 51°14.205 2°55.328 -999 -999 -999 -999
2008-09-26 06:32:50 51°14.225 2°55.302 -999 -999 -999 -999
2008-09-26 06:33:00 51°14.244 2°55.274 -999 -999 -999 -999
2008-09-26 06:33:10 51°14.263 2°55.244 -999 -999 -999 -999
2008-09-26 06:33:20 51°14.28 2°55.214 -999 -999 -999 -999
2008-09-26 06:33:30 51°14.297 2°55.182 -999 -999 -999 -999
2008-09-26 06:33:40 51°14.314 2°55.149 -999 -999 -999 -999
2008-09-26 06:33:50 51°14.33 2°55.115 -999 -999 -999 -999
2008-09-26 06:34:00 51°14.345 2°55.08 -999 -999 -999 -999
2008-09-26 06:34:10 51°14.358 2°55.044 -999 -999 -999 -999
2008-09-26 06:34:20 51°14.371 2°55.007 -999 -999 -999 -999
2008-09-26 06:34:30 51°14.382 2°54.968 -999 -999 -999 -999
2008-09-26 06:34:40 51°14.387 2°54.928 -999 -999 -999 -999
2008-09-26 06:34:50 51°14.389 2°54.886 -999 -999 -999 -999
2008-09-26 06:35:00 51°14.39 2°54.843 -999 -999 -999 -999
2008-09-26 06:35:10 51°14.39 2°54.8 -999 -999 -999 -999
2008-09-26 06:35:20 51°14.388 2°54.756 -999 -999 -999 -999
2008-09-26 06:35:30 51°14.385 2°54.712 -999 -999 -999 -999
2008-09-26 06:35:40 51°14.38 2°54.668 -999 -999 -999 -999
2008-09-26 06:35:50 51°14.376 2°54.626 -999 -999 -999 -999
2008-09-26 06:36:00 51°14.368 2°54.576 -999 -999 -999 -999
2008-09-26 06:36:10 51°14.36 2°54.53 -999 -999 -999 -999
2008-09-26 06:36:20 51°14.349 2°54.484 -999 -999 -999 -999
2008-09-26 06:36:30 51°14.337 2°54.438 -999 -999 -999 -999
2008-09-26 06:36:40 51°14.326 2°54.391 -999 -999 -999 -999
2008-09-26 06:36:50 51°14.314 2°54.342 -999 -999 -999 -999
2008-09-26 06:37:00 51°14.302 2°54.293 -999 -999 -999 -999
2008-09-26 06:37:10 51°14.29 2°54.244 -999 -999 -999 -999
2008-09-26 06:37:20 51°14.278 2°54.194 -999 -999 -999 -999
2008-09-26 06:37:30 51°14.266 2°54.144 -999 -999 -999 -999
2008-09-26 06:37:40 51°14.252 2°54.095 -999 -999 -999 -999
2008-09-26 06:37:50 51°14.238 2°54.046 -999 -999 -999 -999
2008-09-26 06:38:00 51°14.224 2°53.998 -999 -999 -999 -999
2008-09-26 06:38:10 51°14.209 2°53.95 -999 -999 -999 -999
2008-09-26 06:38:20 51°14.195 2°53.901 -999 -999 -999 -999
2008-09-26 06:38:30 51°14.18 2°53.853 -999 -999 -999 -999
2008-09-26 06:38:40 51°14.164 2°53.806 -999 -999 -999 -999
2008-09-26 06:38:50 51°14.149 2°53.757 -999 -999 -999 -999
2008-09-26 06:39:00 51°14.134 2°53.71 -999 -999 -999 -999
2008-09-26 06:39:10 51°14.118 2°53.662 -999 -999 -999 -999
2008-09-26 06:39:20 51°14.103 2°53.614 -999 -999 -999 -999
2008-09-26 06:39:30 51°14.088 2°53.565 -999 -999 -999 -999
2008-09-26 06:39:40 51°14.074 2°53.517 -999 -999 -999 -999
2008-09-26 06:39:50 51°14.058 2°53.469 -999 -999 -999 -999
2008-09-26 06:40:00 51°14.044 2°53.42 -999 -999 -999 -999
2008-09-26 06:40:10 51°14.03 2°53.371 -999 -999 -999 -999
2008-09-26 06:40:20 51°14.015 2°53.322 -999 -999 -999 -999
2008-09-26 06:40:30 51°14 2°53.273 -999 -999 -999 -999
2008-09-26 06:40:40 51°13.985 2°53.225 -999 -999 -999 -999
2008-09-26 06:40:50 51°13.969 2°53.177 -999 -999 -999 -999
2008-09-26 06:41:00 51°13.952 2°53.13 -999 -999 -999 -999
2008-09-26 06:41:10 51°13.935 2°53.082 -999 -999 -999 -999
2008-09-26 06:41:20 51°13.917 2°53.036 -999 -999 -999 -999
2008-09-26 06:41:30 51°13.899 2°52.989 -999 -999 -999 -999
2008-09-26 06:41:40 51°13.881 2°52.943 -999 -999 -999 -999
2008-09-26 06:41:50 51°13.863 2°52.897 -999 -999 -999 -999
2008-09-26 06:42:00 51°13.847 2°52.854 -999 -999 -999 -999
2008-09-26 06:42:10 51°13.832 2°52.815 -999 -999 -999 -999
2008-09-26 06:42:20 51°13.818 2°52.781 -999 -999 -999 -999
2008-09-26 06:42:30 51°13.806 2°52.747 -999 -999 -999 -999
2008-09-26 06:42:40 51°13.796 2°52.715 -999 -999 -999 -999
2008-09-26 06:42:50 51°13.787 2°52.685 -999 -999 -999 -999
2008-09-26 06:43:00 51°13.778 2°52.656 -999 -999 -999 -999
2008-09-26 06:43:10 51°13.77 2°52.628 -999 -999 -999 -999
2008-09-26 06:43:20 51°13.761 2°52.602 -999 -999 -999 -999
2008-09-26 06:43:30 51°13.753 2°52.576 -999 -999 -999 -999
2008-09-26 06:43:40 51°13.744 2°52.55 -999 -999 -999 -999
2008-09-26 06:43:50 51°13.734 2°52.526 -999 -999 -999 -999
2008-09-26 06:44:00 51°13.725 2°52.501 -999 -999 -999 -999
2008-09-26 06:44:10 51°13.716 2°52.477 -999 -999 -999 -999
2008-09-26 06:44:20 51°13.707 2°52.45 -999 -999 -999 -999
2008-09-26 06:44:30 51°13.698 2°52.421 -999 -999 -999 -999
2008-09-26 06:44:40 51°13.688 2°52.39 -999 -999 -999 -999
2008-09-26 06:44:50 51°13.679 2°52.356 -999 -999 -999 -999
2008-09-26 06:45:00 51°13.668 2°52.323 -999 -999 -999 -999
2008-09-26 06:45:10 51°13.657 2°52.289 -999 -999 -999 -999
2008-09-26 06:45:20 51°13.644 2°52.254 -999 -999 -999 -999
2008-09-26 06:45:30 51°13.632 2°52.219 -999 -999 -999 -999
2008-09-26 06:45:40 51°13.619 2°52.184 -999 -999 -999 -999
2008-09-26 06:45:50 51°13.606 2°52.148 -999 -999 -999 -999
2008-09-26 06:46:00 51°13.593 2°52.113 -999 -999 -999 -999
2008-09-26 06:46:10 51°13.579 2°52.078 -999 -999 -999 -999
2008-09-26 06:46:20 51°13.565 2°52.043 -999 -999 -999 -999
2008-09-26 06:46:30 51°13.551 2°52.008 -999 -999 -999 -999
2008-09-26 06:46:40 51°13.537 2°51.973 -999 -999 -999 -999
2008-09-26 06:46:50 51°13.523 2°51.938 -999 -999 -999 -999
2008-09-26 06:47:00 51°13.509 2°51.903 -999 -999 -999 -999
2008-09-26 06:47:10 51°13.495 2°51.868 -999 -999 -999 -999
2008-09-26 06:47:20 51°13.48 2°51.834 -999 -999 -999 -999
2008-09-26 06:47:30 51°13.466 2°51.804 -999 -999 -999 -999
2008-09-26 06:47:40 51°13.454 2°51.776 -999 -999 -999 -999
2008-09-26 06:47:50 51°13.442 2°51.75 -999 -999 -999 -999
2008-09-26 06:48:00 51°13.432 2°51.726 -999 -999 -999 -999
2008-09-26 06:48:10 51°13.422 2°51.702 -999 -999 -999 -999
2008-09-26 06:48:20 51°13.414 2°51.68 -999 -999 -999 -999
2008-09-26 06:48:30 51°13.407 2°51.658 -999 -999 -999 -999
2008-09-26 06:48:40 51°13.4 2°51.636 -999 -999 -999 -999
2008-09-26 06:48:50 51°13.395 2°51.615 -999 -999 -999 -999
2008-09-26 06:49:00 51°13.391 2°51.594 -999 -999 -999 -999
2008-09-26 06:49:10 51°13.387 2°51.574 -999 -999 -999 -999
2008-09-26 06:49:20 51°13.385 2°51.554 -999 -999 -999 -999
2008-09-26 06:49:30 51°13.384 2°51.536 -999 -999 -999 -999
2008-09-26 06:49:40 51°13.384 2°51.518 -999 -999 -999 -999
2008-09-26 06:49:50 51°13.384 2°51.502 -999 -999 -999 -999
2008-09-26 06:50:00 51°13.386 2°51.487 -999 -999 -999 -999
2008-09-26 06:50:10 51°13.388 2°51.472 -999 -999 -999 -999
2008-09-26 06:50:20 51°13.39 2°51.46 -999 -999 -999 -999
2008-09-26 06:50:30 51°13.391 2°51.449 -999 -999 -999 -999
2008-09-26 06:50:40 51°13.392 2°51.44 -999 -999 -999 -999
2008-09-26 06:50:50 51°13.393 2°51.432 -999 -999 -999 -999
2008-09-26 06:51:00 51°13.394 2°51.425 -999 -999 -999 -999
2008-09-26 06:51:10 51°13.393 2°51.419 -999 -999 -999 -999
2008-09-26 06:51:20 51°13.393 2°51.413 -999 -999 -999 -999
2008-09-26 06:51:30 51°13.392 2°51.407 -999 -999 -999 -999
2008-09-26 06:51:40 51°13.39 2°51.402 -999 -999 -999 -999
2008-09-26 06:51:50 51°13.389 2°51.396 -999 -999 -999 -999
2008-09-26 06:52:00 51°13.388 2°51.391 -999 -999 -999 -999
2008-09-26 06:52:10 51°13.387 2°51.386 -999 -999 -999 -999
2008-09-26 06:52:20 51°13.386 2°51.381 -999 -999 -999 -999
2008-09-26 06:52:30 51°13.384 2°51.376 -999 -999 -999 -999
2008-09-26 06:52:40 51°13.383 2°51.371 -999 -999 -999 -999
2008-09-26 06:52:50 51°13.381 2°51.365 -999 -999 -999 -999
2008-09-26 06:53:00 51°13.38 2°51.36 -999 -999 -999 -999
2008-09-26 06:53:10 51°13.378 2°51.355 -999 -999 -999 -999
2008-09-26 06:53:20 51°13.377 2°51.351 -999 -999 -999 -999
2008-09-26 06:53:30 51°13.375 2°51.346 -999 -999 -999 -999
2008-09-26 06:53:40 51°13.374 2°51.341 -999 -999 -999 -999
2008-09-26 06:53:50 51°13.372 2°51.336 -999 -999 -999 -999
2008-09-26 06:54:00 51°13.37 2°51.33 -999 -999 -999 -999
2008-09-26 06:54:10 51°13.368 2°51.325 -999 -999 -999 -999
2008-09-26 06:54:20 51°13.366 2°51.32 -999 -999 -999 -999
2008-09-26 06:54:30 51°13.365 2°51.315 -999 -999 -999 -999
2008-09-26 06:54:40 51°13.363 2°51.309 -999 -999 -999 -999
2008-09-26 06:54:50 51°13.361 2°51.304 -999 -999 -999 -999
2008-09-26 06:55:00 51°13.358 2°51.299 -999 -999 -999 -999
2008-09-26 06:55:10 51°13.356 2°51.293 -999 -999 -999 -999
2008-09-26 06:55:20 51°13.354 2°51.288 -999 -999 -999 -999
2008-09-26 06:55:30 51°13.351 2°51.283 -999 -999 -999 -999
2008-09-26 06:55:40 51°13.349 2°51.278 -999 -999 -999 -999
2008-09-26 06:55:50 51°13.347 2°51.273 -999 -999 -999 -999
2008-09-26 06:56:00 51°13.344 2°51.268 -999 -999 -999 -999
2008-09-26 06:56:10 51°13.342 2°51.263 -999 -999 -999 -999
2008-09-26 06:56:20 51°13.339 2°51.258 -999 -999 -999 -999
2008-09-26 06:56:30 51°13.337 2°51.253 -999 -999 -999 -999
2008-09-26 06:56:40 51°13.334 2°51.248 -999 -999 -999 -999
2008-09-26 06:56:50 51°13.332 2°51.243 -999 -999 -999 -999
2008-09-26 06:57:00 51°13.329 2°51.238 -999 -999 -999 -999
2008-09-26 06:57:10 51°13.326 2°51.234 -999 -999 -999 -999
2008-09-26 06:57:20 51°13.324 2°51.228 -999 -999 -999 -999
2008-09-26 06:57:30 51°13.323 2°51.221 -999 -999 -999 -999
2008-09-26 06:57:40 51°13.323 2°51.211 -999 -999 -999 -999
2008-09-26 06:57:50 51°13.325 2°51.198 -999 -999 -999 -999
2008-09-26 06:58:00 51°13.325 2°51.182 -999 -999 -999 -999
2008-09-26 06:58:10 51°13.324 2°51.163 -999 -999 -999 -999
2008-09-26 06:58:20 51°13.32 2°51.144 -999 -999 -999 -999
2008-09-26 06:58:30 51°13.314 2°51.125 -999 -999 -999 -999
2008-09-26 06:58:40 51°13.306 2°51.103 -999 -999 -999 -999
2008-09-26 06:58:50 51°13.297 2°51.078 -999 -999 -999 -999
2008-09-26 06:59:00 51°13.286 2°51.045 -999 -999 -999 -999
2008-09-26 06:59:10 51°13.274 2°51.006 -999 -999 -999 -999
2008-09-26 06:59:20 51°13.26 2°50.963 -999 -999 -999 -999
2008-09-26 06:59:30 51°13.246 2°50.918 -999 -999 -999 -999
2008-09-26 06:59:40 51°13.231 2°50.872 -999 -999 -999 -999
2008-09-26 06:59:50 51°13.216 2°50.825 -999 -999 -999 -999
2008-09-26 07:00:00 51°13.2 2°50.778 -999 -999 -999 -999
2008-09-26 07:00:10 51°13.183 2°50.731 -999 -999 -999 -999
2008-09-26 07:00:20 51°13.166 2°50.684 -999 -999 -999 -999
2008-09-26 07:00:30 51°13.148 2°50.637 -999 -999 -999 -999
2008-09-26 07:00:40 51°13.131 2°50.59 -999 -999 -999 -999
2008-09-26 07:00:50 51°13.114 2°50.542 -999 -999 -999 -999
2008-09-26 07:01:00 51°13.097 2°50.494 -999 -999 -999 -999
2008-09-26 07:01:10 51°13.08 2°50.447 -999 -999 -999 -999
2008-09-26 07:01:20 51°13.062 2°50.4 -999 -999 -999 -999
2008-09-26 07:01:30 51°13.045 2°50.353 -999 -999 -999 -999
2008-09-26 07:01:40 51°13.028 2°50.305 -999 -999 -999 -999
2008-09-26 07:01:50 51°13.011 2°50.257 -999 -999 -999 -999
2008-09-26 07:02:00 51°12.994 2°50.209 -999 -999 -999 -999
2008-09-26 07:02:10 51°12.978 2°50.161 -999 -999 -999 -999
2008-09-26 07:02:20 51°12.961 2°50.113 -999 -999 -999 -999
2008-09-26 07:02:30 51°12.945 2°50.065 -999 -999 -999 -999
2008-09-26 07:02:40 51°12.929 2°50.017 -999 -999 -999 -999
2008-09-26 07:02:50 51°12.913 2°49.968 -999 -999 -999 -999
2008-09-26 07:03:00 51°12.897 2°49.92 -999 -999 -999 -999
2008-09-26 07:03:10 51°12.881 2°49.872 -999 -999 -999 -999
2008-09-26 07:03:20 51°12.865 2°49.823 -999 -999 -999 -999
2008-09-26 07:03:30 51°12.85 2°49.774 -999 -999 -999 -999
2008-09-26 07:03:40 51°12.835 2°49.725 -999 -999 -999 -999
2008-09-26 07:03:50 51°12.82 2°49.675 -999 -999 -999 -999
2008-09-26 07:04:00 51°12.805 2°49.626 -999 -999 -999 -999
2008-09-26 07:04:10 51°12.788 2°49.577 -999 -999 -999 -999
2008-09-26 07:04:20 51°12.771 2°49.529 -999 -999 -999 -999
2008-09-26 07:04:30 51°12.755 2°49.481 -999 -999 -999 -999
2008-09-26 07:04:40 51°12.738 2°49.433 -999 -999 -999 -999
2008-09-26 07:04:50 51°12.721 2°49.386 -999 -999 -999 -999
2008-09-26 07:05:00 51°12.705 2°49.338 -999 -999 -999 -999
2008-09-26 07:05:10 51°12.688 2°49.29 -999 -999 -999 -999
2008-09-26 07:05:20 51°12.671 2°49.242 -999 -999 -999 -999
2008-09-26 07:05:30 51°12.654 2°49.193 -999 -999 -999 -999
2008-09-26 07:05:40 51°12.639 2°49.145 -999 -999 -999 -999
2008-09-26 07:05:50 51°12.624 2°49.095 -999 -999 -999 -999
2008-09-26 07:06:00 51°12.608 2°49.046 -999 -999 -999 -999
2008-09-26 07:06:10 51°12.594 2°48.997 -999 -999 -999 -999
2008-09-26 07:06:20 51°12.579 2°48.947 -999 -999 -999 -999
2008-09-26 07:06:30 51°12.564 2°48.898 -999 -999 -999 -999
2008-09-26 07:06:40 51°12.549 2°48.849 -999 -999 -999 -999
2008-09-26 07:06:50 51°12.533 2°48.8 -999 -999 -999 -999
2008-09-26 07:07:00 51°12.518 2°48.751 -999 -999 -999 -999
2008-09-26 07:07:10 51°12.503 2°48.702 -999 -999 -999 -999
2008-09-26 07:07:20 51°12.487 2°48.653 -999 -999 -999 -999
2008-09-26 07:07:30 51°12.471 2°48.604 -999 -999 -999 -999
2008-09-26 07:07:40 51°12.456 2°48.555 -999 -999 -999 -999
2008-09-26 07:07:50 51°12.44 2°48.507 -999 -999 -999 -999
2008-09-26 07:08:00 51°12.424 2°48.458 -999 -999 -999 -999
2008-09-26 07:08:10 51°12.407 2°48.41 -999 -999 -999 -999
2008-09-26 07:08:20 51°12.391 2°48.361 -999 -999 -999 -999
2008-09-26 07:08:30 51°12.376 2°48.312 -999 -999 -999 -999
2008-09-26 07:08:40 51°12.361 2°48.262 -999 -999 -999 -999
2008-09-26 07:08:50 51°12.345 2°48.213 -999 -999 -999 -999
2008-09-26 07:09:00 51°12.33 2°48.164 -999 -999 -999 -999
2008-09-26 07:09:10 51°12.316 2°48.12 -999 -999 -999 -999
2008-09-26 07:09:20 51°12.299 2°48.067 -999 -999 -999 -999
2008-09-26 07:09:30 51°12.283 2°48.018 -999 -999 -999 -999
2008-09-26 07:09:40 51°12.267 2°47.969 -999 -999 -999 -999
2008-09-26 07:09:50 51°12.252 2°47.919 -999 -999 -999 -999
2008-09-26 07:10:00 51°12.238 2°47.87 -999 -999 -999 -999
2008-09-26 07:10:10 51°12.224 2°47.819 -999 -999 -999 -999
2008-09-26 07:10:20 51°12.209 2°47.769 -999 -999 -999 -999
2008-09-26 07:10:30 51°12.195 2°47.719 -999 -999 -999 -999
2008-09-26 07:10:40 51°12.181 2°47.669 -999 -999 -999 -999
2008-09-26 07:10:50 51°12.166 2°47.619 -999 -999 -999 -999
2008-09-26 07:11:00 51°12.151 2°47.57 -999 -999 -999 -999
2008-09-26 07:11:10 51°12.137 2°47.52 -999 -999 -999 -999
2008-09-26 07:11:20 51°12.124 2°47.469 -999 -999 -999 -999
2008-09-26 07:11:30 51°12.112 2°47.418 -999 -999 -999 -999
2008-09-26 07:11:40 51°12.101 2°47.365 -999 -999 -999 -999
2008-09-26 07:11:50 51°12.092 2°47.313 -999 -999 -999 -999
2008-09-26 07:12:00 51°12.084 2°47.26 -999 -999 -999 -999
2008-09-26 07:12:10 51°12.076 2°47.207 -999 -999 -999 -999
2008-09-26 07:12:20 51°12.068 2°47.154 -999 -999 -999 -999
2008-09-26 07:12:30 51°12.061 2°47.101 -999 -999 -999 -999
2008-09-26 07:12:40 51°12.054 2°47.048 -999 -999 -999 -999
2008-09-26 07:12:50 51°12.047 2°46.995 -999 -999 -999 -999
2008-09-26 07:13:00 51°12.039 2°46.943 -999 -999 -999 -999
2008-09-26 07:13:10 51°12.032 2°46.89 -999 -999 -999 -999
2008-09-26 07:13:20 51°12.025 2°46.837 -999 -999 -999 -999
2008-09-26 07:13:30 51°12.018 2°46.784 -999 -999 -999 -999
2008-09-26 07:13:40 51°12.011 2°46.732 -999 -999 -999 -999
2008-09-26 07:13:50 51°12.003 2°46.679 -999 -999 -999 -999
2008-09-26 07:14:00 51°11.997 2°46.626 -999 -999 -999 -999
2008-09-26 07:14:10 51°11.99 2°46.574 -999 -999 -999 -999
2008-09-26 07:14:20 51°11.982 2°46.522 -999 -999 -999 -999
2008-09-26 07:14:30 51°11.974 2°46.47 -999 -999 -999 -999
2008-09-26 07:14:40 51°11.966 2°46.418 -999 -999 -999 -999
2008-09-26 07:14:50 51°11.957 2°46.367 -999 -999 -999 -999
2008-09-26 07:15:00 51°11.948 2°46.315 -999 -999 -999 -999
2008-09-26 07:15:10 51°11.939 2°46.264 -999 -999 -999 -999
2008-09-26 07:15:20 51°11.93 2°46.212 -999 -999 -999 -999
2008-09-26 07:15:30 51°11.922 2°46.161 -999 -999 -999 -999
2008-09-26 07:15:40 51°11.913 2°46.11 -999 -999 -999 -999
2008-09-26 07:15:50 51°11.904 2°46.058 -999 -999 -999 -999
2008-09-26 07:16:00 51°11.895 2°46.007 -999 -999 -999 -999
2008-09-26 07:16:10 51°11.887 2°45.956 -999 -999 -999 -999
2008-09-26 07:16:20 51°11.878 2°45.904 -999 -999 -999 -999
2008-09-26 07:16:30 51°11.87 2°45.853 -999 -999 -999 -999
2008-09-26 07:16:40 51°11.861 2°45.802 -999 -999 -999 -999
2008-09-26 07:16:50 51°11.853 2°45.75 -999 -999 -999 -999
2008-09-26 07:17:00 51°11.845 2°45.699 -999 -999 -999 -999
2008-09-26 07:17:10 51°11.836 2°45.648 -999 -999 -999 -999
2008-09-26 07:17:20 51°11.828 2°45.597 -999 -999 -999 -999
2008-09-26 07:17:30 51°11.819 2°45.545 -999 -999 -999 -999
2008-09-26 07:17:40 51°11.811 2°45.494 -999 -999 -999 -999
2008-09-26 07:17:50 51°11.803 2°45.442 -999 -999 -999 -999
2008-09-26 07:18:00 51°11.795 2°45.391 -999 -999 -999 -999
2008-09-26 07:18:10 51°11.786 2°45.34 -999 -999 -999 -999
2008-09-26 07:18:20 51°11.777 2°45.29 -999 -999 -999 -999
2008-09-26 07:18:30 51°11.768 2°45.239 -999 -999 -999 -999
2008-09-26 07:18:40 51°11.759 2°45.188 -999 -999 -999 -999
2008-09-26 07:18:50 51°11.751 2°45.137 -999 -999 -999 -999
2008-09-26 07:19:00 51°11.742 2°45.086 -999 -999 -999 -999
2008-09-26 07:19:10 51°11.734 2°45.036 -999 -999 -999 -999
2008-09-26 07:19:20 51°11.725 2°44.985 -999 -999 -999 -999
2008-09-26 07:19:30 51°11.717 2°44.934 -999 -999 -999 -999
2008-09-26 07:19:40 51°11.708 2°44.883 -999 -999 -999 -999
2008-09-26 07:19:50 51°11.7 2°44.832 -999 -999 -999 -999
2008-09-26 07:20:00 51°11.693 2°44.78 -999 -999 -999 -999
2008-09-26 07:20:10 51°11.685 2°44.729 -999 -999 -999 -999
2008-09-26 07:20:20 51°11.677 2°44.678 -999 -999 -999 -999
2008-09-26 07:20:30 51°11.669 2°44.628 -999 -999 -999 -999
2008-09-26 07:20:40 51°11.661 2°44.577 -999 -999 -999 -999
2008-09-26 07:20:50 51°11.652 2°44.526 -999 -999 -999 -999
2008-09-26 07:21:00 51°11.643 2°44.476 -999 -999 -999 -999
2008-09-26 07:21:10 51°11.634 2°44.426 -999 -999 -999 -999
2008-09-26 07:21:20 51°11.626 2°44.375 -999 -999 -999 -999
2008-09-26 07:21:30 51°11.618 2°44.324 -999 -999 -999 -999
2008-09-26 07:21:40 51°11.609 2°44.274 -999 -999 -999 -999
2008-09-26 07:21:50 51°11.601 2°44.223 -999 -999 -999 -999
2008-09-26 07:22:00 51°11.592 2°44.173 -999 -999 -999 -999
2008-09-26 07:22:10 51°11.584 2°44.122 -999 -999 -999 -999
2008-09-26 07:22:20 51°11.576 2°44.071 -999 -999 -999 -999
2008-09-26 07:22:30 51°11.568 2°44.021 -999 -999 -999 -999
2008-09-26 07:22:40 51°11.56 2°43.97 -999 -999 -999 -999
2008-09-26 07:22:50 51°11.552 2°43.92 -999 -999 -999 -999
2008-09-26 07:23:00 51°11.543 2°43.869 -999 -999 -999 -999
2008-09-26 07:23:10 51°11.536 2°43.819 -999 -999 -999 -999
2008-09-26 07:23:20 51°11.529 2°43.768 -999 -999 -999 -999
2008-09-26 07:23:30 51°11.523 2°43.717 -999 -999 -999 -999
2008-09-26 07:23:40 51°11.518 2°43.665 -999 -999 -999 -999
2008-09-26 07:23:50 51°11.513 2°43.614 -999 -999 -999 -999
2008-09-26 07:24:00 51°11.508 2°43.562 -999 -999 -999 -999
2008-09-26 07:24:10 51°11.504 2°43.511 -999 -999 -999 -999
2008-09-26 07:24:20 51°11.499 2°43.459 -999 -999 -999 -999
2008-09-26 07:24:30 51°11.494 2°43.408 -999 -999 -999 -999
2008-09-26 07:24:40 51°11.489 2°43.356 -999 -999 -999 -999
2008-09-26 07:24:50 51°11.484 2°43.305 -999 -999 -999 -999
2008-09-26 07:25:00 51°11.479 2°43.254 -999 -999 -999 -999
2008-09-26 07:25:10 51°11.473 2°43.203 -999 -999 -999 -999
2008-09-26 07:25:20 51°11.468 2°43.151 -999 -999 -999 -999
2008-09-26 07:25:30 51°11.463 2°43.1 -999 -999 -999 -999
2008-09-26 07:25:40 51°11.457 2°43.05 -999 -999 -999 -999
2008-09-26 07:25:50 51°11.452 2°42.999 -999 -999 -999 -999
2008-09-26 07:26:00 51°11.446 2°42.948 -999 -999 -999 -999
2008-09-26 07:26:10 51°11.44 2°42.897 -999 -999 -999 -999
2008-09-26 07:26:20 51°11.434 2°42.846 -999 -999 -999 -999
2008-09-26 07:26:30 51°11.428 2°42.795 -999 -999 -999 -999
2008-09-26 07:26:40 51°11.421 2°42.744 -999 -999 -999 -999
2008-09-26 07:26:50 51°11.415 2°42.693 -999 -999 -999 -999
2008-09-26 07:27:00 51°11.407 2°42.645 -999 -999 -999 -999
2008-09-26 07:27:10 51°11.396 2°42.6 -999 -999 -999 -999
2008-09-26 07:27:20 51°11.382 2°42.561 -999 -999 -999 -999
2008-09-26 07:27:30 51°11.365 2°42.524 -999 -999 -999 -999
2008-09-26 07:27:40 51°11.349 2°42.492 -999 -999 -999 -999
2008-09-26 07:27:50 51°11.334 2°42.462 -999 -999 -999 -999
2008-09-26 07:28:00 51°11.318 2°42.436 -999 -999 -999 -999
2008-09-26 07:28:10 51°11.303 2°42.414 -999 -999 -999 -999
2008-09-26 07:28:20 51°11.289 2°42.395 -999 -999 -999 -999
2008-09-26 07:28:30 51°11.277 2°42.378 -999 -999 -999 -999
2008-09-26 07:28:40 51°11.267 2°42.361 -999 -999 -999 -999
2008-09-26 07:28:50 51°11.258 2°42.345 -999 -999 -999 -999
2008-09-26 07:29:00 51°11.25 2°42.329 -999 -999 -999 -999
2008-09-26 07:29:10 51°11.242 2°42.314 -999 -999 -999 -999
2008-09-26 07:29:20 51°11.235 2°42.3 -999 -999 -999 -999
2008-09-26 07:29:30 51°11.228 2°42.287 -999 -999 -999 -999
2008-09-26 07:29:40 51°11.22 2°42.276 -999 -999 -999 -999
2008-09-26 07:29:50 51°11.213 2°42.265 -999 -999 -999 -999
2008-09-26 07:30:00 51°11.205 2°42.256 -999 -999 -999 -999
2008-09-26 07:30:10 51°11.198 2°42.247 -999 -999 -999 -999
2008-09-26 07:30:20 51°11.191 2°42.239 -999 -999 -999 -999
2008-09-26 07:30:30 51°11.184 2°42.231 -999 -999 -999 -999
2008-09-26 07:30:40 51°11.177 2°42.223 -999 -999 -999 -999
2008-09-26 07:30:50 51°11.17 2°42.216 -999 -999 -999 -999
2008-09-26 07:31:00 51°11.164 2°42.209 -999 -999 -999 -999
2008-09-26 07:31:10 51°11.157 2°42.202 -999 -999 -999 -999
2008-09-26 07:31:20 51°11.151 2°42.196 -999 -999 -999 -999
2008-09-26 07:31:30 51°11.144 2°42.19 -999 -999 -999 -999
2008-09-26 07:31:40 51°11.138 2°42.184 -999 -999 -999 -999
2008-09-26 07:31:50 51°11.131 2°42.177 -999 -999 -999 -999
2008-09-26 07:32:00 51°11.124 2°42.171 -999 -999 -999 -999
2008-09-26 07:32:10 51°11.117 2°42.165 -999 -999 -999 -999
2008-09-26 07:32:20 51°11.11 2°42.158 -999 -999 -999 -999
2008-09-26 07:32:30 51°11.103 2°42.15 -999 -999 -999 -999
2008-09-26 07:32:40 51°11.097 2°42.142 -999 -999 -999 -999
2008-09-26 07:32:50 51°11.09 2°42.134 -999 -999 -999 -999
2008-09-26 07:33:00 51°11.084 2°42.127 -999 -999 -999 -999
2008-09-26 07:33:10 51°11.079 2°42.12 -999 -999 -999 -999
2008-09-26 07:33:20 51°11.073 2°42.114 -999 -999 -999 -999
2008-09-26 07:33:30 51°11.068 2°42.108 -999 -999 -999 -999
2008-09-26 07:33:40 51°11.064 2°42.103 -999 -999 -999 -999
2008-09-26 07:33:50 51°11.06 2°42.099 -999 -999 -999 -999
2008-09-26 07:34:00 51°11.056 2°42.095 -999 -999 -999 -999
2008-09-26 07:34:10 51°11.052 2°42.091 -999 -999 -999 -999
2008-09-26 07:34:20 51°11.048 2°42.088 -999 -999 -999 -999
2008-09-26 07:34:30 51°11.045 2°42.084 -999 -999 -999 -999
2008-09-26 07:34:40 51°11.041 2°42.081 -999 -999 -999 -999
2008-09-26 07:34:50 51°11.038 2°42.078 -999 -999 -999 -999
2008-09-26 07:35:00 51°11.035 2°42.074 -999 -999 -999 -999
2008-09-26 07:35:10 51°11.032 2°42.071 -999 -999 -999 -999
2008-09-26 07:35:20 51°11.029 2°42.068 -999 -999 -999 -999
2008-09-26 07:35:30 51°11.026 2°42.065 -999 -999 -999 -999
2008-09-26 07:35:40 51°11.024 2°42.062 -999 -999 -999 -999
2008-09-26 07:35:50 51°11.021 2°42.06 -999 -999 -999 -999
2008-09-26 07:36:00 51°11.018 2°42.057 -999 -999 -999 -999
2008-09-26 07:36:10 51°11.016 2°42.054 -999 -999 -999 -999
2008-09-26 07:36:20 51°11.014 2°42.052 -999 -999 -999 -999
2008-09-26 07:36:30 51°11.011 2°42.049 -999 -999 -999 -999
2008-09-26 07:36:40 51°11.009 2°42.046 -999 -999 -999 -999
2008-09-26 07:36:50 51°11.007 2°42.044 -999 -999 -999 -999
2008-09-26 07:37:00 51°11.005 2°42.041 -999 -999 -999 -999
2008-09-26 07:37:10 51°11.002 2°42.039 -999 -999 -999 -999
2008-09-26 07:37:20 51°11 2°42.036 -999 -999 -999 -999
2008-09-26 07:37:30 51°10.998 2°42.033 -999 -999 -999 -999
2008-09-26 07:37:40 51°10.996 2°42.03 -999 -999 -999 -999
2008-09-26 07:37:50 51°10.993 2°42.028 -999 -999 -999 -999
2008-09-26 07:38:00 51°10.991 2°42.025 -999 -999 -999 -999
2008-09-26 07:38:10 51°10.989 2°42.023 -999 -999 -999 -999
2008-09-26 07:38:20 51°10.987 2°42.02 -999 -999 -999 -999
2008-09-26 07:38:30 51°10.985 2°42.018 -999 -999 -999 -999
2008-09-26 07:38:40 51°10.983 2°42.015 -999 -999 -999 -999
2008-09-26 07:38:50 51°10.981 2°42.012 -999 -999 -999 -999
2008-09-26 07:39:00 51°10.976 2°42.01 -999 -999 -999 -999
2008-09-26 07:39:10 51°10.971 2°42.006 -999 -999 -999 -999
2008-09-26 07:39:20 51°10.963 2°42.002 -999 -999 -999 -999
2008-09-26 07:39:30 51°10.956 2°41.994 -999 -999 -999 -999
2008-09-26 07:39:40 51°10.948 2°41.982 -999 -999 -999 -999
2008-09-26 07:39:50 51°10.941 2°41.968 -999 -999 -999 -999
2008-09-26 07:40:00 51°10.936 2°41.951 -999 -999 -999 -999
2008-09-26 07:40:10 51°10.93 2°41.929 -999 -999 -999 -999
2008-09-26 07:40:20 51°10.924 2°41.903 -999 -999 -999 -999
2008-09-26 07:40:30 51°10.916 2°41.872 -999 -999 -999 -999
2008-09-26 07:40:40 51°10.907 2°41.838 -999 -999 -999 -999
2008-09-26 07:40:50 51°10.896 2°41.802 -999 -999 -999 -999
2008-09-26 07:41:00 51°10.885 2°41.764 -999 -999 -999 -999
2008-09-26 07:41:10 51°10.872 2°41.723 -999 -999 -999 -999
2008-09-26 07:41:20 51°10.86 2°41.679 -999 -999 -999 -999
2008-09-26 07:41:30 51°10.847 2°41.634 -999 -999 -999 -999
2008-09-26 07:41:40 51°10.836 2°41.587 -999 -999 -999 -999
2008-09-26 07:41:50 51°10.827 2°41.538 -999 -999 -999 -999
2008-09-26 07:42:00 51°10.819 2°41.489 -999 -999 -999 -999
2008-09-26 07:42:10 51°10.813 2°41.438 -999 -999 -999 -999
2008-09-26 07:42:20 51°10.808 2°41.388 -999 -999 -999 -999
2008-09-26 07:42:30 51°10.803 2°41.337 -999 -999 -999 -999
2008-09-26 07:42:40 51°10.797 2°41.287 -999 -999 -999 -999
2008-09-26 07:42:50 51°10.792 2°41.236 -999 -999 -999 -999
2008-09-26 07:43:00 51°10.786 2°41.186 -999 -999 -999 -999
2008-09-26 07:43:10 51°10.781 2°41.135 -999 -999 -999 -999
2008-09-26 07:43:20 51°10.775 2°41.084 -999 -999 -999 -999
2008-09-26 07:43:30 51°10.77 2°41.034 -999 -999 -999 -999
2008-09-26 07:43:40 51°10.766 2°40.983 -999 -999 -999 -999
2008-09-26 07:43:50 51°10.762 2°40.932 -999 -999 -999 -999
2008-09-26 07:44:00 51°10.757 2°40.881 -999 -999 -999 -999
2008-09-26 07:44:10 51°10.752 2°40.83 -999 -999 -999 -999
2008-09-26 07:44:20 51°10.747 2°40.78 -999 -999 -999 -999
2008-09-26 07:44:30 51°10.741 2°40.729 -999 -999 -999 -999
2008-09-26 07:44:40 51°10.735 2°40.679 -999 -999 -999 -999
2008-09-26 07:44:50 51°10.729 2°40.628 -999 -999 -999 -999
2008-09-26 07:45:00 51°10.723 2°40.578 -999 -999 -999 -999
2008-09-26 07:45:10 51°10.718 2°40.528 -999 -999 -999 -999
2008-09-26 07:45:20 51°10.711 2°40.478 -999 -999 -999 -999
2008-09-26 07:45:30 51°10.706 2°40.428 -999 -999 -999 -999
2008-09-26 07:45:40 51°10.701 2°40.377 -999 -999 -999 -999
2008-09-26 07:45:50 51°10.695 2°40.326 -999 -999 -999 -999
2008-09-26 07:46:00 51°10.69 2°40.275 -999 -999 -999 -999
2008-09-26 07:46:10 51°10.685 2°40.225 -999 -999 -999 -999
2008-09-26 07:46:20 51°10.68 2°40.174 -999 -999 -999 -999
2008-09-26 07:46:30 51°10.674 2°40.124 -999 -999 -999 -999
2008-09-26 07:46:40 51°10.669 2°40.073 -999 -999 -999 -999
2008-09-26 07:46:50 51°10.664 2°40.022 -999 -999 -999 -999
2008-09-26 07:47:00 51°10.659 2°39.972 -999 -999 -999 -999
2008-09-26 07:47:10 51°10.653 2°39.922 -999 -999 -999 -999
2008-09-26 07:47:20 51°10.648 2°39.872 -999 -999 -999 -999
2008-09-26 07:47:30 51°10.642 2°39.823 -999 -999 -999 -999
2008-09-26 07:47:40 51°10.637 2°39.772 -999 -999 -999 -999
2008-09-26 07:47:50 51°10.631 2°39.722 -999 -999 -999 -999
2008-09-26 07:48:00 51°10.626 2°39.672 -999 -999 -999 -999
2008-09-26 07:48:10 51°10.62 2°39.622 -999 -999 -999 -999
2008-09-26 07:48:20 51°10.615 2°39.576 -999 -999 -999 -999
2008-09-26 07:48:30 51°10.608 2°39.521 -999 -999 -999 -999
2008-09-26 07:48:40 51°10.602 2°39.471 -999 -999 -999 -999
2008-09-26 07:48:50 51°10.596 2°39.421 -999 -999 -999 -999
2008-09-26 07:49:00 51°10.59 2°39.37 -999 -999 -999 -999
2008-09-26 07:49:10 51°10.584 2°39.32 -999 -999 -999 -999
2008-09-26 07:49:20 51°10.578 2°39.269 -999 -999 -999 -999
2008-09-26 07:49:30 51°10.574 2°39.223 -999 -999 -999 -999
2008-09-26 07:49:40 51°10.567 2°39.167 -999 -999 -999 -999
2008-09-26 07:49:50 51°10.562 2°39.116 -999 -999 -999 -999
2008-09-26 07:50:00 51°10.558 2°39.07 -999 -999 -999 -999
2008-09-26 07:50:10 51°10.551 2°39.014 -999 -999 -999 -999
2008-09-26 07:50:20 51°10.545 2°38.964 -999 -999 -999 -999
2008-09-26 07:50:30 51°10.54 2°38.918 -999 -999 -999 -999
2008-09-26 07:50:40 51°10.534 2°38.862 -999 -999 -999 -999
2008-09-26 07:50:50 51°10.528 2°38.81 -999 -999 -999 -999
2008-09-26 07:51:00 51°10.522 2°38.764 -999 -999 -999 -999
2008-09-26 07:51:10 51°10.516 2°38.713 -999 -999 -999 -999
2008-09-26 07:51:20 51°10.509 2°38.658 -999 -999 -999 -999
2008-09-26 07:51:30 51°10.502 2°38.607 -999 -999 -999 -999
2008-09-26 07:51:40 51°10.496 2°38.555 -999 -999 -999 -999
2008-09-26 07:51:50 51°10.49 2°38.509 -999 -999 -999 -999
2008-09-26 07:52:00 51°10.484 2°38.453 -999 -999 -999 -999
2008-09-26 07:52:10 51°10.479 2°38.401 -999 -999 -999 -999
2008-09-26 07:52:20 51°10.473 2°38.35 -999 -999 -999 -999
2008-09-26 07:52:30 51°10.468 2°38.298 -999 -999 -999 -999
2008-09-26 07:52:40 51°10.463 2°38.251 -999 -999 -999 -999
2008-09-26 07:52:50 51°10.458 2°38.194 -999 -999 -999 -999
2008-09-26 07:53:00 51°10.454 2°38.142 -999 -999 -999 -999
2008-09-26 07:53:10 51°10.449 2°38.09 -999 -999 -999 -999
2008-09-26 07:53:20 51°10.444 2°38.039 -999 -999 -999 -999
2008-09-26 07:53:30 51°10.438 2°37.993 -999 -999 -999 -999
2008-09-26 07:53:40 51°10.432 2°37.936 -999 -999 -999 -999
2008-09-26 07:53:50 51°10.427 2°37.884 -999 -999 -999 -999
2008-09-26 07:54:00 51°10.422 2°37.838 -999 -999 -999 -999
2008-09-26 07:54:10 51°10.417 2°37.786 -999 -999 -999 -999
2008-09-26 07:54:20 51°10.411 2°37.729 -999 -999 -999 -999
2008-09-26 07:54:30 51°10.406 2°37.677 -999 -999 -999 -999
2008-09-26 07:54:40 51°10.401 2°37.626 -999 -999 -999 -999
2008-09-26 07:54:50 51°10.396 2°37.579 -999 -999 -999 -999
2008-09-26 07:55:00 51°10.391 2°37.522 -999 -999 -999 -999
2008-09-26 07:55:10 51°10.386 2°37.47 -999 -999 -999 -999
2008-09-26 07:55:20 51°10.382 2°37.423 -999 -999 -999 -999
2008-09-26 07:55:30 51°10.377 2°37.371 -999 -999 -999 -999
2008-09-26 07:55:40 51°10.372 2°37.313 -999 -999 -999 -999
2008-09-26 07:55:50 51°10.367 2°37.261 -999 -999 -999 -999
2008-09-26 07:56:00 51°10.361 2°37.216 -999 -999 -999 -999
2008-09-26 07:56:10 51°10.355 2°37.165 -999 -999 -999 -999
2008-09-26 07:56:20 51°10.35 2°37.114 -999 -999 -999 -999
2008-09-26 07:56:30 51°10.344 2°37.059 -999 -999 -999 -999
2008-09-26 07:56:40 51°10.342 2°37.008 -999 -999 -999 -999
2008-09-26 07:56:50 51°10.341 2°36.963 -999 -999 -999 -999
2008-09-26 07:57:00 51°10.34 2°36.907 -999 -999 -999 -999
2008-09-26 07:57:10 51°10.342 2°36.857 -999 -999 -999 -999
2008-09-26 07:57:20 51°10.345 2°36.813 -999 -999 -999 -999
2008-09-26 07:57:30 51°10.353 2°36.765 -999 -999 -999 -999
2008-09-26 07:57:40 51°10.363 2°36.714 -999 -999 -999 -999
2008-09-26 07:57:50 51°10.375 2°36.669 -999 -999 -999 -999
2008-09-26 07:58:00 51°10.389 2°36.631 -999 -999 -999 -999
2008-09-26 07:58:10 51°10.408 2°36.588 -999 -999 -999 -999
2008-09-26 07:58:20 51°10.428 2°36.552 -999 -999 -999 -999
2008-09-26 07:58:30 51°10.447 2°36.522 -999 -999 -999 -999
2008-09-26 07:58:40 51°10.473 2°36.49 -999 -999 -999 -999
2008-09-26 07:58:50 51°10.497 2°36.463 -999 -999 -999 -999
2008-09-26 07:59:00 51°10.52 2°36.44 -999 -999 -999 -999
2008-09-26 07:59:10 51°10.546 2°36.417 -999 -999 -999 -999
2008-09-26 07:59:20 51°10.577 2°36.399 -999 -999 -999 -999
2008-09-26 07:59:30 51°10.606 2°36.389 -999 -999 -999 -999
2008-09-26 07:59:40 51°10.632 2°36.384 -999 -999 -999 -999
2008-09-26 07:59:50 51°10.665 2°36.386 -999 -999 -999 -999
2008-09-26 08:00:00 51°10.694 2°36.393 -999 -999 -999 -999
2008-09-26 08:00:10 51°10.724 2°36.403 -999 -999 -999 -999
2008-09-26 08:00:20 51°10.753 2°36.415 -999 -999 -999 -999
2008-09-26 08:00:30 51°10.779 2°36.426 -999 -999 -999 -999
2008-09-26 08:00:40 51°10.809 2°36.439 -999 -999 -999 -999
2008-09-26 08:00:50 51°10.842 2°36.453 -999 -999 -999 -999
2008-09-26 08:01:00 51°10.871 2°36.466 -999 -999 -999 -999
2008-09-26 08:01:10 51°10.898 2°36.477 -999 -999 -999 -999
2008-09-26 08:01:20 51°10.932 2°36.49 -999 -999 -999 -999
2008-09-26 08:01:30 51°10.962 2°36.501 -999 -999 -999 -999
2008-09-26 08:01:40 51°10.989 2°36.509 -999 -999 -999 -999
2008-09-26 08:01:50 51°11.022 2°36.521 -999 -999 -999 -999
2008-09-26 08:02:00 51°11.052 2°36.534 -999 -999 -999 -999
2008-09-26 08:02:10 51°11.082 2°36.546 -999 -999 -999 -999
2008-09-26 08:02:20 51°11.11 2°36.555 -999 -999 -999 -999
2008-09-26 08:02:30 51°11.14 2°36.566 -999 -999 -999 -999
2008-09-26 08:02:40 51°11.173 2°36.577 -999 -999 -999 -999
2008-09-26 08:02:50 51°11.201 2°36.586 -999 -999 -999 -999
2008-09-26 08:03:00 51°11.231 2°36.596 -999 -999 -999 -999
2008-09-26 08:03:10 51°11.264 2°36.607 -999 -999 -999 -999
2008-09-26 08:03:20 51°11.294 2°36.617 -999 -999 -999 -999
2008-09-26 08:03:30 51°11.324 2°36.629 -999 -999 -999 -999
2008-09-26 08:03:40 51°11.355 2°36.64 -999 -999 -999 -999
2008-09-26 08:03:50 51°11.382 2°36.651 -999 -999 -999 -999
2008-09-26 08:04:00 51°11.415 2°36.664 -999 -999 -999 -999
2008-09-26 08:04:10 51°11.445 2°36.675 -999 -999 -999 -999
2008-09-26 08:04:20 51°11.472 2°36.686 -999 -999 -999 -999
2008-09-26 08:04:30 51°11.506 2°36.699 -999 -999 -999 -999
2008-09-26 08:04:40 51°11.536 2°36.711 -999 -999 -999 -999
2008-09-26 08:04:50 51°11.566 2°36.723 -999 -999 -999 -999
2008-09-26 08:05:00 51°11.593 2°36.734 -999 -999 -999 -999
2008-09-26 08:05:10 51°11.623 2°36.746 -999 -999 -999 -999
2008-09-26 08:05:20 51°11.656 2°36.759 -999 -999 -999 -999
2008-09-26 08:05:30 51°11.686 2°36.77 -999 -999 -999 -999
2008-09-26 08:05:40 51°11.716 2°36.782 -999 -999 -999 -999
2008-09-26 08:05:50 51°11.743 2°36.792 -999 -999 -999 -999
2008-09-26 08:06:00 51°11.776 2°36.804 -999 -999 -999 -999
2008-09-26 08:06:10 51°11.806 2°36.816 -999 -999 -999 -999
2008-09-26 08:06:20 51°11.833 2°36.827 -999 -999 -999 -999
2008-09-26 08:06:30 51°11.866 2°36.84 -999 -999 -999 -999
2008-09-26 08:06:40 51°11.896 2°36.852 -999 -999 -999 -999
2008-09-26 08:06:50 51°11.924 2°36.862 -999 -999 -999 -999
2008-09-26 08:07:00 51°11.957 2°36.874 -999 -999 -999 -999
2008-09-26 08:07:10 51°11.987 2°36.886 -999 -999 -999 -999
2008-09-26 08:07:20 51°12.017 2°36.898 -999 -999 -999 -999
2008-09-26 08:07:30 51°12.044 2°36.909 -999 -999 -999 -999
2008-09-26 08:07:40 51°12.077 2°36.921 -999 -999 -999 -999
2008-09-26 08:07:50 51°12.107 2°36.933 -999 -999 -999 -999
2008-09-26 08:08:00 51°12.134 2°36.942 -999 -999 -999 -999
2008-09-26 08:08:10 51°12.164 2°36.955 -999 -999 -999 -999
2008-09-26 08:08:20 51°12.198 2°36.969 -999 -999 -999 -999
2008-09-26 08:08:30 51°12.225 2°36.978 -999 -999 -999 -999
2008-09-26 08:08:40 51°12.258 2°36.991 -999 -999 -999 -999
2008-09-26 08:08:50 51°12.288 2°37.002 -999 -999 -999 -999
2008-09-26 08:09:00 51°12.315 2°37.013 -999 -999 -999 -999
2008-09-26 08:09:10 51°12.345 2°37.024 -999 -999 -999 -999
2008-09-26 08:09:20 51°12.378 2°37.037 -999 -999 -999 -999
2008-09-26 08:09:30 51°12.409 2°37.05 -999 -999 -999 -999
2008-09-26 08:09:40 51°12.436 2°37.062 -999 -999 -999 -999
2008-09-26 08:09:50 51°12.466 2°37.074 -999 -999 -999 -999
2008-09-26 08:10:00 51°12.5 2°37.086 -999 -999 -999 -999
2008-09-26 08:10:10 51°12.53 2°37.098 -999 -999 -999 -999
2008-09-26 08:10:20 51°12.561 2°37.107 -999 -999 -999 -999
2008-09-26 08:10:30 51°12.588 2°37.114 -999 -999 -999 -999
2008-09-26 08:10:40 51°12.623 2°37.122 -999 -999 -999 -999
2008-09-26 08:10:50 51°12.653 2°37.129 -999 -999 -999 -999
2008-09-26 08:11:00 51°12.681 2°37.134 -999 -999 -999 -999
2008-09-26 08:11:10 51°12.712 2°37.139 -999 -999 -999 -999
2008-09-26 08:11:20 51°12.747 2°37.145 -999 -999 -999 -999
2008-09-26 08:11:30 51°12.777 2°37.149 -999 -999 -999 -999
2008-09-26 08:11:40 51°12.809 2°37.154 -999 -999 -999 -999
2008-09-26 08:11:50 51°12.836 2°37.158 -999 -999 -999 -999
2008-09-26 08:12:00 51°12.87 2°37.163 -999 -999 -999 -999
2008-09-26 08:12:10 51°12.901 2°37.167 -999 -999 -999 -999
2008-09-26 08:12:20 51°12.929 2°37.171 -999 -999 -999 -999
2008-09-26 08:12:30 51°12.963 2°37.175 -999 -999 -999 -999
2008-09-26 08:12:40 51°12.994 2°37.179 -999 -999 -999 -999
2008-09-26 08:12:50 51°13.025 2°37.181 -999 -999 -999 -999
2008-09-26 08:13:00 51°13.052 2°37.181 -999 -999 -999 -999
2008-09-26 08:13:10 51°13.086 2°37.181 -999 -999 -999 -999
2008-09-26 08:13:20 51°13.117 2°37.179 -999 -999 -999 -999
2008-09-26 08:13:30 51°13.144 2°37.177 -999 -999 -999 -999
2008-09-26 08:13:40 51°13.175 2°37.175 -999 -999 -999 -999
2008-09-26 08:13:50 51°13.208 2°37.171 -999 -999 -999 -999
2008-09-26 08:14:00 51°13.236 2°37.168 -999 -999 -999 -999
2008-09-26 08:14:10 51°13.266 2°37.164 -999 -999 -999 -999
2008-09-26 08:14:20 51°13.299 2°37.16 -999 -999 -999 -999
2008-09-26 08:14:30 51°13.326 2°37.156 -999 -999 -999 -999
2008-09-26 08:14:40 51°13.359 2°37.152 -999 -999 -999 -999
2008-09-26 08:14:50 51°13.389 2°37.148 -999 -999 -999 -999
2008-09-26 08:15:00 51°13.417 2°37.145 -999 -999 -999 -999
2008-09-26 08:15:10 51°13.447 2°37.141 -999 -999 -999 -999
2008-09-26 08:15:20 51°13.48 2°37.137 -999 -999 -999 -999
2008-09-26 08:15:30 51°13.507 2°37.134 -999 -999 -999 -999
2008-09-26 08:15:40 51°13.537 2°37.131 -999 -999 -999 -999
2008-09-26 08:15:50 51°13.571 2°37.129 -999 -999 -999 -999
2008-09-26 08:16:00 51°13.602 2°37.126 -999 -999 -999 -999
2008-09-26 08:16:10 51°13.633 2°37.123 -999 -999 -999 -999
2008-09-26 08:16:20 51°13.664 2°37.12 -999 -999 -999 -999
2008-09-26 08:16:30 51°13.695 2°37.117 -999 -999 -999 -999
2008-09-26 08:16:40 51°13.726 2°37.114 -999 -999 -999 -999
2008-09-26 08:16:50 51°13.757 2°37.11 -999 -999 -999 -999
2008-09-26 08:17:00 51°13.785 2°37.107 -999 -999 -999 -999
2008-09-26 08:17:10 51°13.819 2°37.103 -999 -999 -999 -999
2008-09-26 08:17:20 51°13.85 2°37.1 -999 -999 -999 -999
2008-09-26 08:17:30 51°13.878 2°37.096 -999 -999 -999 -999
2008-09-26 08:17:40 51°13.912 2°37.091 -999 -999 -999 -999
2008-09-26 08:17:50 51°13.944 2°37.085 -999 -999 -999 -999
2008-09-26 08:18:00 51°13.975 2°37.08 -999 -999 -999 -999
2008-09-26 08:18:10 51°14.006 2°37.076 -999 -999 -999 -999
2008-09-26 08:18:20 51°14.037 2°37.073 -999 -999 -999 -999
2008-09-26 08:18:30 51°14.065 2°37.072 -999 -999 -999 -999
2008-09-26 08:18:40 51°14.097 2°37.07 -999 -999 -999 -999
2008-09-26 08:18:50 51°14.131 2°37.067 -999 -999 -999 -999
2008-09-26 08:19:00 51°14.159 2°37.066 -999 -999 -999 -999
2008-09-26 08:19:10 51°14.194 2°37.063 -999 -999 -999 -999
2008-09-26 08:19:20 51°14.225 2°37.059 -999 -999 -999 -999
2008-09-26 08:19:30 51°14.256 2°37.055 -999 -999 -999 -999
2008-09-26 08:19:40 51°14.287 2°37.051 -999 -999 -999 -999
2008-09-26 08:19:50 51°14.319 2°37.048 -999 -999 -999 -999
2008-09-26 08:20:00 51°14.349 2°37.044 -999 -999 -999 -999
2008-09-26 08:20:10 51°14.377 2°37.041 -999 -999 -999 -999
2008-09-26 08:20:20 51°14.412 2°37.038 -999 -999 -999 -999
2008-09-26 08:20:30 51°14.443 2°37.036 -999 -999 -999 -999
2008-09-26 08:20:40 51°14.47 2°37.033 -999 -999 -999 -999
2008-09-26 08:20:50 51°14.504 2°37.028 -999 -999 -999 -999
2008-09-26 08:21:00 51°14.535 2°37.022 -999 -999 -999 -999
2008-09-26 08:21:10 51°14.562 2°37.016 -999 -999 -999 -999
2008-09-26 08:21:20 51°14.596 2°37.01 -999 -999 -999 -999
2008-09-26 08:21:30 51°14.627 2°37.004 -999 -999 -999 -999
2008-09-26 08:21:40 51°14.658 2°36.998 -999 -999 -999 -999
2008-09-26 08:21:50 51°14.688 2°36.993 -999 -999 -999 -999
2008-09-26 08:22:00 51°14.719 2°36.989 -999 -999 -999 -999
2008-09-26 08:22:10 51°14.75 2°36.986 -999 -999 -999 -999
2008-09-26 08:22:20 51°14.781 2°36.984 -999 -999 -999 -999
2008-09-26 08:22:30 51°14.812 2°36.982 -999 -999 -999 -999
2008-09-26 08:22:40 51°14.843 2°36.978 -999 -999 -999 -999
2008-09-26 08:22:50 51°14.871 2°36.976 -999 -999 -999 -999
2008-09-26 08:23:00 51°14.905 2°36.972 -999 -999 -999 -999
2008-09-26 08:23:10 51°14.936 2°36.968 -999 -999 -999 -999
2008-09-26 08:23:20 51°14.967 2°36.964 -999 -999 -999 -999
2008-09-26 08:23:30 51°14.995 2°36.96 -999 -999 -999 -999
2008-09-26 08:23:40 51°15.029 2°36.956 -999 -999 -999 -999
2008-09-26 08:23:50 51°15.06 2°36.952 -999 -999 -999 -999
2008-09-26 08:24:00 51°15.092 2°36.948 -999 -999 -999 -999
2008-09-26 08:24:10 51°15.123 2°36.944 -999 -999 -999 -999
2008-09-26 08:24:20 51°15.154 2°36.94 -999 -999 -999 -999
2008-09-26 08:24:30 51°15.185 2°36.936 -999 -999 -999 -999
2008-09-26 08:24:40 51°15.217 2°36.931 -999 -999 -999 -999
2008-09-26 08:24:50 51°15.248 2°36.928 -999 -999 -999 -999
2008-09-26 08:25:00 51°15.28 2°36.924 -999 -999 -999 -999
2008-09-26 08:25:10 51°15.311 2°36.92 -999 -999 -999 -999
2008-09-26 08:25:20 51°15.342 2°36.917 -999 -999 -999 -999
2008-09-26 08:25:30 51°15.374 2°36.914 -999 -999 -999 -999
2008-09-26 08:25:40 51°15.405 2°36.911 -999 -999 -999 -999
2008-09-26 08:25:50 51°15.436 2°36.907 -999 -999 -999 -999
2008-09-26 08:26:00 51°15.467 2°36.904 -999 -999 -999 -999
2008-09-26 08:26:10 51°15.498 2°36.9 -999 -999 -999 -999
2008-09-26 08:26:20 51°15.53 2°36.897 -999 -999 -999 -999
2008-09-26 08:26:30 51°15.558 2°36.893 -999 -999 -999 -999
2008-09-26 08:26:40 51°15.591 2°36.888 -999 -999 -999 -999
2008-09-26 08:26:50 51°15.622 2°36.884 -999 -999 -999 -999
2008-09-26 08:27:00 51°15.653 2°36.879 -999 -999 -999 -999
2008-09-26 08:27:10 51°15.684 2°36.875 -999 -999 -999 -999
2008-09-26 08:27:20 51°15.716 2°36.87 -999 -999 -999 -999
2008-09-26 08:27:30 51°15.747 2°36.866 -999 -999 -999 -999
2008-09-26 08:27:40 51°15.778 2°36.861 -999 -999 -999 -999
2008-09-26 08:27:50 51°15.809 2°36.856 -999 -999 -999 -999
2008-09-26 08:28:00 51°15.84 2°36.852 -999 -999 -999 -999
2008-09-26 08:28:10 51°15.872 2°36.846 -999 -999 -999 -999
2008-09-26 08:28:20 51°15.903 2°36.842 -999 -999 -999 -999
2008-09-26 08:28:30 51°15.935 2°36.836 -999 -999 -999 -999
2008-09-26 08:28:40 51°15.966 2°36.83 -999 -999 -999 -999
2008-09-26 08:28:50 51°15.995 2°36.824 -999 -999 -999 -999
2008-09-26 08:29:00 51°16.022 2°36.82 -999 -999 -999 -999
2008-09-26 08:29:10 51°16.049 2°36.818 -999 -999 -999 -999
2008-09-26 08:29:20 51°16.074 2°36.816 -999 -999 -999 -999
2008-09-26 08:29:30 51°16.1 2°36.815 -999 -999 -999 -999
2008-09-26 08:29:40 51°16.125 2°36.813 -999 -999 -999 -999
2008-09-26 08:29:50 51°16.149 2°36.812 -999 -999 -999 -999
2008-09-26 08:30:00 51°16.174 2°36.81 -999 -999 -999 -999
2008-09-26 08:30:10 51°16.198 2°36.808 -999 -999 -999 -999
2008-09-26 08:30:20 51°16.223 2°36.807 -999 -999 -999 -999
2008-09-26 08:30:30 51°16.248 2°36.806 -999 -999 -999 -999
2008-09-26 08:30:40 51°16.272 2°36.804 -999 -999 -999 -999
2008-09-26 08:30:50 51°16.297 2°36.803 -999 -999 -999 -999
2008-09-26 08:31:00 51°16.322 2°36.801 -999 -999 -999 -999
2008-09-26 08:31:10 51°16.346 2°36.799 -999 -999 -999 -999
2008-09-26 08:31:20 51°16.369 2°36.798 -999 -999 -999 -999
2008-09-26 08:31:30 51°16.389 2°36.798 -999 -999 -999 -999
2008-09-26 08:31:40 51°16.407 2°36.799 -999 -999 -999 -999
2008-09-26 08:31:50 51°16.423 2°36.801 -999 -999 -999 -999
2008-09-26 08:32:00 51°16.437 2°36.803 -999 -999 -999 -999
2008-09-26 08:32:10 51°16.449 2°36.804 -999 -999 -999 -999
2008-09-26 08:32:20 51°16.46 2°36.805 -999 -999 -999 -999
2008-09-26 08:32:30 51°16.47 2°36.802 -999 -999 -999 -999
2008-09-26 08:32:40 51°16.479 2°36.8 -999 -999 -999 -999
2008-09-26 08:32:50 51°16.488 2°36.797 -999 -999 -999 -999
2008-09-26 08:33:00 51°16.495 2°36.793 -999 -999 -999 -999
2008-09-26 08:33:10 51°16.502 2°36.79 -999 -999 -999 -999
2008-09-26 08:33:20 51°16.509 2°36.787 -999 -999 -999 -999
2008-09-26 08:33:30 51°16.516 2°36.785 -999 -999 -999 -999
2008-09-26 08:33:40 51°16.522 2°36.783 -999 -999 -999 -999
2008-09-26 08:33:50 51°16.528 2°36.781 -999 -999 -999 -999
2008-09-26 08:34:00 51°16.534 2°36.779 -999 -999 -999 -999
2008-09-26 08:34:10 51°16.54 2°36.778 -999 -999 -999 -999
2008-09-26 08:34:20 51°16.545 2°36.776 -999 -999 -999 -999
2008-09-26 08:34:30 51°16.55 2°36.774 -999 -999 -999 -999
2008-09-26 08:34:40 51°16.555 2°36.773 -999 -999 -999 -999
2008-09-26 08:34:50 51°16.56 2°36.772 -999 -999 -999 -999
2008-09-26 08:35:00 51°16.564 2°36.771 -999 -999 -999 -999
2008-09-26 08:35:10 51°16.569 2°36.771 -999 -999 -999 -999
2008-09-26 08:35:20 51°16.573 2°36.77 -999 -999 -999 -999
2008-09-26 08:35:30 51°16.576 2°36.769 -999 -999 -999 -999
2008-09-26 08:35:40 51°16.58 2°36.769 -999 -999 -999 -999
2008-09-26 08:35:50 51°16.583 2°36.768 -999 -999 -999 -999
2008-09-26 08:36:00 51°16.586 2°36.768 -999 -999 -999 -999
2008-09-26 08:36:10 51°16.589 2°36.768 -999 -999 -999 -999
2008-09-26 08:36:20 51°16.592 2°36.768 -999 -999 -999 -999
2008-09-26 08:36:30 51°16.594 2°36.768 -999 -999 -999 -999
2008-09-26 08:36:40 51°16.596 2°36.767 -999 -999 -999 -999
2008-09-26 08:36:50 51°16.598 2°36.767 -999 -999 -999 -999
2008-09-26 08:37:00 51°16.601 2°36.767 -999 -999 -999 -999
2008-09-26 08:37:10 51°16.602 2°36.766 -999 -999 -999 -999
2008-09-26 08:37:20 51°16.604 2°36.766 -999 -999 -999 -999
2008-09-26 08:37:30 51°16.605 2°36.765 -999 -999 -999 -999
2008-09-26 08:37:40 51°16.607 2°36.765 -999 -999 -999 -999
2008-09-26 08:37:50 51°16.608 2°36.764 -999 -999 -999 -999
2008-09-26 08:38:00 51°16.609 2°36.764 -999 -999 -999 -999
2008-09-26 08:38:10 51°16.61 2°36.763 -999 -999 -999 -999
2008-09-26 08:38:20 51°16.611 2°36.762 -999 -999 -999 -999
2008-09-26 08:38:30 51°16.612 2°36.762 -999 -999 -999 -999
2008-09-26 08:38:40 51°16.613 2°36.761 -999 -999 -999 -999
2008-09-26 08:38:50 51°16.614 2°36.76 -999 -999 -999 -999
2008-09-26 08:39:00 51°16.615 2°36.76 -999 -999 -999 -999
2008-09-26 08:39:10 51°16.616 2°36.759 -999 -999 -999 -999
2008-09-26 08:39:20 51°16.617 2°36.759 -999 -999 -999 -999
2008-09-26 08:39:30 51°16.618 2°36.758 -999 -999 -999 -999
2008-09-26 08:39:40 51°16.619 2°36.757 -999 -999 -999 -999
2008-09-26 08:39:50 51°16.619 2°36.756 -999 -999 -999 -999
2008-09-26 08:40:00 51°16.619 2°36.755 -999 -999 -999 -999
2008-09-26 08:40:10 51°16.62 2°36.754 -999 -999 -999 -999
2008-09-26 08:40:20 51°16.62 2°36.753 -999 -999 -999 -999
2008-09-26 08:40:30 51°16.62 2°36.753 -999 -999 -999 -999
2008-09-26 08:40:40 51°16.62 2°36.752 -999 -999 -999 -999
2008-09-26 08:40:50 51°16.62 2°36.751 -999 -999 -999 -999
2008-09-26 08:41:00 51°16.622 2°36.749 -999 -999 -999 -999
2008-09-26 08:41:10 51°16.625 2°36.747 -999 -999 -999 -999
2008-09-26 08:41:20 51°16.63 2°36.743 -999 -999 -999 -999
2008-09-26 08:41:30 51°16.635 2°36.738 -999 -999 -999 -999
2008-09-26 08:41:40 51°16.641 2°36.73 -999 -999 -999 -999
2008-09-26 08:41:50 51°16.647 2°36.72 -999 -999 -999 -999
2008-09-26 08:42:00 51°16.654 2°36.707 -999 -999 -999 -999
2008-09-26 08:42:10 51°16.664 2°36.691 -999 -999 -999 -999
2008-09-26 08:42:20 51°16.676 2°36.671 -999 -999 -999 -999
2008-09-26 08:42:30 51°16.691 2°36.647 -999 -999 -999 -999
2008-09-26 08:42:40 51°16.707 2°36.619 -999 -999 -999 -999
2008-09-26 08:42:50 51°16.724 2°36.588 -999 -999 -999 -999
2008-09-26 08:43:00 51°16.742 2°36.556 -999 -999 -999 -999
2008-09-26 08:43:10 51°16.76 2°36.523 -999 -999 -999 -999
2008-09-26 08:43:20 51°16.779 2°36.489 -999 -999 -999 -999
2008-09-26 08:43:30 51°16.798 2°36.454 -999 -999 -999 -999
2008-09-26 08:43:40 51°16.817 2°36.42 -999 -999 -999 -999
2008-09-26 08:43:50 51°16.836 2°36.385 -999 -999 -999 -999
2008-09-26 08:44:00 51°16.855 2°36.35 -999 -999 -999 -999
2008-09-26 08:44:10 51°16.874 2°36.314 -999 -999 -999 -999
2008-09-26 08:44:20 51°16.893 2°36.278 -999 -999 -999 -999
2008-09-26 08:44:30 51°16.911 2°36.243 -999 -999 -999 -999
2008-09-26 08:44:40 51°16.93 2°36.207 -999 -999 -999 -999
2008-09-26 08:44:50 51°16.948 2°36.171 -999 -999 -999 -999
2008-09-26 08:45:00 51°16.966 2°36.135 -999 -999 -999 -999
2008-09-26 08:45:10 51°16.984 2°36.1 -999 -999 -999 -999
2008-09-26 08:45:20 51°17.001 2°36.064 -999 -999 -999 -999
2008-09-26 08:45:30 51°17.02 2°36.028 -999 -999 -999 -999
2008-09-26 08:45:40 51°17.037 2°35.993 -999 -999 -999 -999
2008-09-26 08:45:50 51°17.056 2°35.957 -999 -999 -999 -999
2008-09-26 08:46:00 51°17.074 2°35.922 -999 -999 -999 -999
2008-09-26 08:46:10 51°17.092 2°35.887 -999 -999 -999 -999
2008-09-26 08:46:20 51°17.11 2°35.852 -999 -999 -999 -999
2008-09-26 08:46:30 51°17.128 2°35.817 -999 -999 -999 -999
2008-09-26 08:46:40 51°17.146 2°35.782 -999 -999 -999 -999
2008-09-26 08:46:50 51°17.163 2°35.746 -999 -999 -999 -999
2008-09-26 08:47:00 51°17.181 2°35.711 -999 -999 -999 -999
2008-09-26 08:47:10 51°17.198 2°35.676 -999 -999 -999 -999
2008-09-26 08:47:20 51°17.216 2°35.641 -999 -999 -999 -999
2008-09-26 08:47:30 51°17.233 2°35.606 -999 -999 -999 -999
2008-09-26 08:47:40 51°17.251 2°35.571 -999 -999 -999 -999
2008-09-26 08:47:50 51°17.268 2°35.536 -999 -999 -999 -999
2008-09-26 08:48:00 51°17.285 2°35.502 -999 -999 -999 -999
2008-09-26 08:48:10 51°17.302 2°35.467 -999 -999 -999 -999
2008-09-26 08:48:20 51°17.319 2°35.432 -999 -999 -999 -999
2008-09-26 08:48:30 51°17.336 2°35.398 -999 -999 -999 -999
2008-09-26 08:48:40 51°17.353 2°35.364 -999 -999 -999 -999
2008-09-26 08:48:50 51°17.371 2°35.33 -999 -999 -999 -999
2008-09-26 08:49:00 51°17.388 2°35.297 -999 -999 -999 -999
2008-09-26 08:49:10 51°17.406 2°35.263 -999 -999 -999 -999
2008-09-26 08:49:20 51°17.423 2°35.228 -999 -999 -999 -999
2008-09-26 08:49:30 51°17.44 2°35.193 -999 -999 -999 -999
2008-09-26 08:49:40 51°17.458 2°35.158 -999 -999 -999 -999
2008-09-26 08:49:50 51°17.475 2°35.124 -999 -999 -999 -999
2008-09-26 08:50:00 51°17.492 2°35.089 -999 -999 -999 -999
2008-09-26 08:50:10 51°17.508 2°35.055 -999 -999 -999 -999
2008-09-26 08:50:20 51°17.525 2°35.02 -999 -999 -999 -999
2008-09-26 08:50:30 51°17.542 2°34.984 -999 -999 -999 -999
2008-09-26 08:50:40 51°17.558 2°34.949 -999 -999 -999 -999
2008-09-26 08:50:50 51°17.575 2°34.914 -999 -999 -999 -999
2008-09-26 08:51:00 51°17.592 2°34.879 -999 -999 -999 -999
2008-09-26 08:51:10 51°17.61 2°34.844 -999 -999 -999 -999
2008-09-26 08:51:20 51°17.627 2°34.81 -999 -999 -999 -999
2008-09-26 08:51:30 51°17.644 2°34.775 -999 -999 -999 -999
2008-09-26 08:51:40 51°17.661 2°34.741 -999 -999 -999 -999
2008-09-26 08:51:50 51°17.679 2°34.706 -999 -999 -999 -999
2008-09-26 08:52:00 51°17.697 2°34.672 -999 -999 -999 -999
2008-09-26 08:52:10 51°17.714 2°34.637 -999 -999 -999 -999
2008-09-26 08:52:20 51°17.732 2°34.601 -999 -999 -999 -999
2008-09-26 08:52:30 51°17.749 2°34.565 -999 -999 -999 -999
2008-09-26 08:52:40 51°17.767 2°34.529 -999 -999 -999 -999
2008-09-26 08:52:50 51°17.785 2°34.493 -999 -999 -999 -999
2008-09-26 08:53:00 51°17.803 2°34.457 -999 -999 -999 -999
2008-09-26 08:53:10 51°17.821 2°34.421 -999 -999 -999 -999
2008-09-26 08:53:20 51°17.839 2°34.385 -999 -999 -999 -999
2008-09-26 08:53:30 51°17.857 2°34.35 -999 -999 -999 -999
2008-09-26 08:53:40 51°17.875 2°34.314 -999 -999 -999 -999
2008-09-26 08:53:50 51°17.893 2°34.278 -999 -999 -999 -999
2008-09-26 08:54:00 51°17.911 2°34.242 -999 -999 -999 -999
2008-09-26 08:54:10 51°17.93 2°34.206 -999 -999 -999 -999
2008-09-26 08:54:20 51°17.949 2°34.171 -999 -999 -999 -999
2008-09-26 08:54:30 51°17.967 2°34.136 -999 -999 -999 -999
2008-09-26 08:54:40 51°17.985 2°34.1 -999 -999 -999 -999
2008-09-26 08:54:50 51°18.003 2°34.064 -999 -999 -999 -999
2008-09-26 08:55:00 51°18.021 2°34.028 -999 -999 -999 -999
2008-09-26 08:55:10 51°18.04 2°33.993 -999 -999 -999 -999
2008-09-26 08:55:20 51°18.058 2°33.957 -999 -999 -999 -999
2008-09-26 08:55:30 51°18.076 2°33.921 -999 -999 -999 -999
2008-09-26 08:55:40 51°18.094 2°33.884 -999 -999 -999 -999
2008-09-26 08:55:50 51°18.112 2°33.847 -999 -999 -999 -999
2008-09-26 08:56:00 51°18.129 2°33.81 -999 -999 -999 -999
2008-09-26 08:56:10 51°18.147 2°33.774 -999 -999 -999 -999
2008-09-26 08:56:20 51°18.164 2°33.736 -999 -999 -999 -999
2008-09-26 08:56:30 51°18.181 2°33.699 -999 -999 -999 -999
2008-09-26 08:56:40 51°18.199 2°33.663 -999 -999 -999 -999
2008-09-26 08:56:50 51°18.216 2°33.626 -999 -999 -999 -999
2008-09-26 08:57:00 51°18.233 2°33.589 -999 -999 -999 -999
2008-09-26 08:57:10 51°18.251 2°33.552 -999 -999 -999 -999
2008-09-26 08:57:20 51°18.268 2°33.516 -999 -999 -999 -999
2008-09-26 08:57:30 51°18.286 2°33.479 -999 -999 -999 -999
2008-09-26 08:57:40 51°18.303 2°33.442 -999 -999 -999 -999
2008-09-26 08:57:50 51°18.32 2°33.405 -999 -999 -999 -999
2008-09-26 08:58:00 51°18.337 2°33.368 -999 -999 -999 -999
2008-09-26 08:58:10 51°18.354 2°33.331 -999 -999 -999 -999
2008-09-26 08:58:20 51°18.371 2°33.294 -999 -999 -999 -999
2008-09-26 08:58:30 51°18.388 2°33.257 -999 -999 -999 -999
2008-09-26 08:58:40 51°18.405 2°33.22 -999 -999 -999 -999
2008-09-26 08:58:50 51°18.422 2°33.183 -999 -999 -999 -999
2008-09-26 08:59:00 51°18.439 2°33.145 -999 -999 -999 -999
2008-09-26 08:59:10 51°18.456 2°33.107 -999 -999 -999 -999
2008-09-26 08:59:20 51°18.474 2°33.07 -999 -999 -999 -999
2008-09-26 08:59:30 51°18.491 2°33.032 -999 -999 -999 -999
2008-09-26 08:59:40 51°18.508 2°32.994 -999 -999 -999 -999
2008-09-26 08:59:50 51°18.524 2°32.955 -999 -999 -999 -999
2008-09-26 09:00:00 51°18.541 2°32.917 -999 -999 -999 -999
2008-09-26 09:00:10 51°18.558 2°32.879 -999 -999 -999 -999
2008-09-26 09:00:20 51°18.575 2°32.841 -999 -999 -999 -999
2008-09-26 09:00:30 51°18.592 2°32.803 -999 -999 -999 -999
2008-09-26 09:00:40 51°18.609 2°32.765 -999 -999 -999 -999
2008-09-26 09:00:50 51°18.627 2°32.727 -999 -999 -999 -999
2008-09-26 09:01:00 51°18.644 2°32.689 -999 -999 -999 -999
2008-09-26 09:01:10 51°18.662 2°32.651 -999 -999 -999 -999
2008-09-26 09:01:20 51°18.68 2°32.613 -999 -999 -999 -999
2008-09-26 09:01:30 51°18.697 2°32.575 -999 -999 -999 -999
2008-09-26 09:01:40 51°18.715 2°32.537 -999 -999 -999 -999
2008-09-26 09:01:50 51°18.732 2°32.499 -999 -999 -999 -999
2008-09-26 09:02:00 51°18.749 2°32.46 -999 -999 -999 -999
2008-09-26 09:02:10 51°18.766 2°32.422 -999 -999 -999 -999
2008-09-26 09:02:20 51°18.783 2°32.383 -999 -999 -999 -999
2008-09-26 09:02:30 51°18.8 2°32.345 -999 -999 -999 -999
2008-09-26 09:02:40 51°18.818 2°32.307 -999 -999 -999 -999
2008-09-26 09:02:50 51°18.836 2°32.268 -999 -999 -999 -999
2008-09-26 09:03:00 51°18.854 2°32.23 -999 -999 -999 -999
2008-09-26 09:03:10 51°18.871 2°32.193 -999 -999 -999 -999
2008-09-26 09:03:20 51°18.889 2°32.155 -999 -999 -999 -999
2008-09-26 09:03:30 51°18.907 2°32.117 -999 -999 -999 -999
2008-09-26 09:03:40 51°18.925 2°32.078 -999 -999 -999 -999
2008-09-26 09:03:50 51°18.942 2°32.039 -999 -999 -999 -999
2008-09-26 09:04:00 51°18.959 2°32 -999 -999 -999 -999
2008-09-26 09:04:10 51°18.977 2°31.961 -999 -999 -999 -999
2008-09-26 09:04:20 51°18.994 2°31.923 -999 -999 -999 -999
2008-09-26 09:04:30 51°19.012 2°31.885 -999 -999 -999 -999
2008-09-26 09:04:40 51°19.029 2°31.847 -999 -999 -999 -999
2008-09-26 09:04:50 51°19.047 2°31.809 -999 -999 -999 -999
2008-09-26 09:05:00 51°19.064 2°31.771 -999 -999 -999 -999
2008-09-26 09:05:10 51°19.081 2°31.734 -999 -999 -999 -999
2008-09-26 09:05:20 51°19.099 2°31.697 -999 -999 -999 -999
2008-09-26 09:05:30 51°19.116 2°31.66 -999 -999 -999 -999
2008-09-26 09:05:40 51°19.133 2°31.623 -999 -999 -999 -999
2008-09-26 09:05:50 51°19.15 2°31.586 -999 -999 -999 -999
2008-09-26 09:06:00 51°19.168 2°31.55 -999 -999 -999 -999
2008-09-26 09:06:10 51°19.185 2°31.514 -999 -999 -999 -999
2008-09-26 09:06:20 51°19.203 2°31.477 -999 -999 -999 -999
2008-09-26 09:06:30 51°19.22 2°31.44 -999 -999 -999 -999
2008-09-26 09:06:40 51°19.237 2°31.404 -999 -999 -999 -999
2008-09-26 09:06:50 51°19.255 2°31.368 -999 -999 -999 -999
2008-09-26 09:07:00 51°19.272 2°31.331 -999 -999 -999 -999
2008-09-26 09:07:10 51°19.29 2°31.294 -999 -999 -999 -999
2008-09-26 09:07:20 51°19.308 2°31.258 -999 -999 -999 -999
2008-09-26 09:07:30 51°19.326 2°31.222 -999 -999 -999 -999
2008-09-26 09:07:40 51°19.345 2°31.186 -999 -999 -999 -999
2008-09-26 09:07:50 51°19.363 2°31.151 -999 -999 -999 -999
2008-09-26 09:08:00 51°19.382 2°31.114 -999 -999 -999 -999
2008-09-26 09:08:10 51°19.4 2°31.078 -999 -999 -999 -999
2008-09-26 09:08:20 51°19.418 2°31.042 -999 -999 -999 -999
2008-09-26 09:08:30 51°19.437 2°31.005 -999 -999 -999 -999
2008-09-26 09:08:40 51°19.455 2°30.97 -999 -999 -999 -999
2008-09-26 09:08:50 51°19.473 2°30.934 -999 -999 -999 -999
2008-09-26 09:09:00 51°19.492 2°30.899 -999 -999 -999 -999
2008-09-26 09:09:10 51°19.51 2°30.864 -999 -999 -999 -999
2008-09-26 09:09:20 51°19.528 2°30.829 -999 -999 -999 -999
2008-09-26 09:09:30 51°19.546 2°30.794 -999 -999 -999 -999
2008-09-26 09:09:40 51°19.564 2°30.759 -999 -999 -999 -999
2008-09-26 09:09:50 51°19.581 2°30.725 -999 -999 -999 -999
2008-09-26 09:10:00 51°19.6 2°30.69 -999 -999 -999 -999
2008-09-26 09:10:10 51°19.617 2°30.656 -999 -999 -999 -999